Location: Unspecified
(17.6330°N, 0.0000°E)
Time: 10:38:30
(UTC+00:00)

N. Korean satellite - Pass Details

Date: 02 November 2020
Orbit: 452 x 504 km, 97.2° (Epoch: 28 November)

Event Time Altitude Azimuth Distance (km) Brightness Sun altitude
Rises 04:28:01 0° 39° (NE) 2,464 10.6 -22.1°
Reaches altitude 10° 04:30:56 10° 68° (ENE) 1,597 10.0 -21.4°
Maximum altitude 04:32:38 13° 98° (E) 1,416 10.0 -21.0°
Drops below altitude 10° 04:34:20 10° 128° (SE) 1,606 10.1 -20.6°
Sets 04:37:16 0° 156° (SSE) 2,491 10.7 -19.9°
